sat.trackr.live / text

‹ back to catalog

STARLINK-5356

NORAD 56418 · 2023-061AW

PAYLOAD ACTIVE UNKNOWN

§ Identity

Operator
Country
US
Launch date
2023-05-04
Launch site
AFETR
Launch vehicle
Mass (kg)
RCS (m²)

Purposes: comms

External: N2YO · Heavens-Above · Gunter

§ Orbital elements

Epoch: 2026-09-19T23:12:20.062368Z

Period
94.27 min
Inclination
43.0035°
Eccentricity
0.0001018
Mean motion
15.27575002 rev/d
Perigee alt
482.4 km
Apogee alt
483.8 km
Semi-major
6,861.2 km
B*
9.0418e-6
RAAN
162.2239°
Arg perigee
266.2172°
Mean anomaly
93.8563°
Rev number
18,667

§ Raw data

STARLINK-53561 56418U 23061AW  26262.96689887 -.00000013  00000+0  90418-5 0  99962 56418  43.0035 162.2239 0001018 266.2172  93.8563 15.27575002186678

JSON: /api/v1/satellites/56418 · /tle

For live sub-satellite position, see the globe view (requires WebGL).

§ Visibility from observer

Set your observer location to see the next 7 days of passes ≥ 10°. The values pass through the URL so the page stays shareable.

No JS? Fill the form by hand. The geolocation button needs JavaScript.